Location: Newark
(44.5208°N, 2.4294°E)
Time: 10:43:12
(UTC+00:00)

Envisat - Pass Details

Date: 27 September 2019
Orbit: 764 x 766 km, 98.1° (Epoch: 14 October)

Event Time Altitude Azimuth Distance (km) Brightness Sun altitude
Rises 18:22:24 0° 181° (S) 3,218 6.2 -8.5°
Reaches altitude 10° 18:24:46 10° 186° (S) 2,296 5.5 -9.0°
Maximum altitude 18:29:39 48° 261° (W) 994 4.1 -9.8°
Drops below altitude 10° 18:34:34 10° 336° (NNW) 2,312 5.9 -10.7°
Sets 18:36:58 0° 342° (NNW) 3,242 6.6 -11.1°
